Preview of NWS' New Version of Forecast
This preview is not operational and should not be used for support decisions.

Regional Weather Roundup (RWR)

Issued by National Weather Service (NWS)

                            
000
ASUS45 KCYS 220010
RWRWY 

WYOMING REGIONAL WEATHER ROUNDUP
NATIONAL WEATHER SERVICE CHEYENNE WY
600 PM MDT SUN APR 21 2019

NOTE:  "FAIR" INDICATES FEW OR NO CLOUDS BELOW 12,000 FEET
WITH NO SIGNIFICANT WEATHER AND/OR OBSTRUCTIONS TO VISIBILITY.

WYZ001-220100-
YELLOWSTONE NATIONAL PARK
  
CITY           SKY/WX    TMP DP  RH WIND       PRES   REMARKS
LK YELLOWSTONE   N/A     40  26  57 VRB6      30.10R                  
6HR MIN TEMP:  38; 6HR MAX TEMP:  42;                                

W YELLOWSTONE  NOT AVBL                                               

$$
WYZ002>013-054>058-071-098>099-220100-
NORTHERN WYOMING
  
CITY           SKY/WX    TMP DP  RH WIND       PRES   REMARKS
JACKSON        LGT RAIN  39  37  93 N15       30.02R WCI  31          
CODY           LGT RAIN  40  35  83 N16       30.15R WCI  31          
GREYBULL       CLOUDY    49  38  65 NW21      30.05R                  
6HR MIN TEMP:  48; 6HR MAX TEMP:  52; 6HR PCP: TRACE;                

WORLAND        LGT RAIN  44  41  89 W12       30.09R                  
6HR MIN TEMP:  44; 6HR MAX TEMP:  48; 6HR PCP:  0.06;                

SHERIDAN       LGT RAIN  45  41  86 N8        30.16R                  
6HR MIN TEMP:  44; 6HR MAX TEMP:  46; 6HR PCP:  0.14;                

BUFFALO        LGT RAIN  41  40  96 N16G25    30.14R FOG              
6HR MIN TEMP:  42; 6HR MAX TEMP:  43; 6HR PCP: TRACE;                

GILLETTE       CLOUDY    42  41  96 N15       30.10R                  
6HR MIN TEMP:  42; 6HR MAX TEMP:  45; 6HR PCP:  0.02;                

HULETT         RAIN      41  39  93 NE8       30.12                   
NEWCASTLE      LGT RAIN  45  37  76 N12G23    30.02                   

$$
WYZ014>020-022>026-101>103-220100-
CENTRAL WYOMING
  
CITY           SKY/WX    TMP DP  RH WIND       PRES   REMARKS
BIG PINEY      LGT RAIN  41  36  82 SE13      30.03R                  
6HR MIN TEMP:  41; 6HR MAX TEMP:  50; 6HR PCP:  0.04;                

PINEDALE       LGT RAIN  39  37  93 E6        30.04  WCI  35          
DUBOIS         CLOUDY    36  34  93 E9        30.07  WCI  29          
LANDER         LGT RAIN  41  38  89 E3        30.09R                  
6HR MIN TEMP:  40; 6HR MAX TEMP:  43; 6HR PCP:  0.33;                

RIVERTON       LGT RAIN  40  36  86 NE14G23   30.09R WCI  32          
6HR MIN TEMP:  39; 6HR MAX TEMP:  43; 6HR PCP:  0.06;                

CASPER         LGT RAIN  41  40  96 N13       30.09R                  
6HR MIN TEMP:  40; 6HR MAX TEMP:  45; 6HR PCP:  0.02;                

DOUGLAS        CLOUDY    45  42  89 N15G23    30.05R                  
6HR MIN TEMP:  45; 6HR MAX TEMP:  50; 6HR PCP: TRACE;                


$$
WYZ021-027>030-104>119-220100-
SOUTHERN WYOMING
  
CITY           SKY/WX    TMP DP  RH WIND       PRES   REMARKS
EVANSTON       LGT RAIN  40  37  89 W8        30.01R WCI  34          
6HR MIN TEMP:  40; 6HR MAX TEMP:  55; 6HR PCP:  0.08;                

KEMMERER       DRIZZLE   45  37  76 W13G18    29.99                   
ROCK SPRINGS   CLOUDY    40  36  86 NE24G32   30.00R WCI  29          
6HR MIN TEMP:  40; 6HR MAX TEMP:  55; 6HR PCP: TRACE;                

DIXON          CLOUDY    56  33  42 S16       29.99R THUNDER          
RAWLINS        LGT RAIN  42  39  89 N10       30.04R                  
6HR MIN TEMP:  41; 6HR MAX TEMP:  58; 6HR PCP:  0.20;                

SARATOGA       DRIZZLE   43  43 100 CALM      30.03R                  
LARAMIE        LGT RAIN  41  39  93 NW10      30.04R                  
6HR MIN TEMP:  39; 6HR MAX TEMP:  59; 6HR PCP:  0.27;                

CHEYENNE       CLOUDY    47  45  93 N14G22    29.99R                  
6HR MIN TEMP:  47; 6HR MAX TEMP:  56; 6HR PCP: TRACE;                

TORRINGTON     CLOUDY    48  47  96 NE13      29.98R                  
6HR MIN TEMP:  48; 6HR MAX TEMP:  51; 6HR PCP:  0.29;                

PINE BLUFFS    MOCLDY    50  43  76 N17G25    29.97R                  

$$
  

000
ASUS45 KCYS 220010
RWRWY 

WYOMING REGIONAL WEATHER ROUNDUP
NATIONAL WEATHER SERVICE CHEYENNE WY
600 PM MDT SUN APR 21 2019

NOTE:  "FAIR" INDICATES FEW OR NO CLOUDS BELOW 12,000 FEET
WITH NO SIGNIFICANT WEATHER AND/OR OBSTRUCTIONS TO VISIBILITY.

WYZ001-220100-
...YELLOWSTONE NATIONAL PARK...
  
CITY           SKY/WX    TMP DP  RH WIND       PRES   REMARKS
LK YELLOWSTONE   N/A     40  26  57 VRB6      30.10R                  
6HR MIN TEMP:  38; 6HR MAX TEMP:  42;                                

W YELLOWSTONE  NOT AVBL                                               

$$
WYZ002>013-054>058-071-098>099-220100-
...NORTHERN WYOMING...
  
CITY           SKY/WX    TMP DP  RH WIND       PRES   REMARKS
JACKSON        LGT RAIN  39  37  93 N15       30.02R WCI  31          
CODY           LGT RAIN  40  35  83 N16       30.15R WCI  31          
GREYBULL       CLOUDY    49  38  65 NW21      30.05R                  
6HR MIN TEMP:  48; 6HR MAX TEMP:  52; 6HR PCP: TRACE;                

WORLAND        LGT RAIN  44  41  89 W12       30.09R                  
6HR MIN TEMP:  44; 6HR MAX TEMP:  48; 6HR PCP:  0.06;                

SHERIDAN       LGT RAIN  45  41  86 N8        30.16R                  
6HR MIN TEMP:  44; 6HR MAX TEMP:  46; 6HR PCP:  0.14;                

BUFFALO        LGT RAIN  41  40  96 N16G25    30.14R FOG              
6HR MIN TEMP:  42; 6HR MAX TEMP:  43; 6HR PCP: TRACE;                

GILLETTE       CLOUDY    42  41  96 N15       30.10R                  
6HR MIN TEMP:  42; 6HR MAX TEMP:  45; 6HR PCP:  0.02;                

HULETT         RAIN      41  39  93 NE8       30.12R                  
NEWCASTLE      LGT RAIN  45  37  76 N12G23    30.02R                  

$$
WYZ014>020-022>026-101>103-220100-
...CENTRAL WYOMING...
  
CITY           SKY/WX    TMP DP  RH WIND       PRES   REMARKS
BIG PINEY      LGT RAIN  41  36  82 SE13      30.03R                  
6HR MIN TEMP:  41; 6HR MAX TEMP:  50; 6HR PCP:  0.04;                

PINEDALE       LGT RAIN  39  37  93 E6        30.04R WCI  35          
DUBOIS         CLOUDY    36  34  93 E9        30.07R WCI  29          
LANDER         LGT RAIN  41  38  89 E3        30.09R                  
6HR MIN TEMP:  40; 6HR MAX TEMP:  43; 6HR PCP:  0.33;                

RIVERTON       LGT RAIN  40  36  86 NE14G23   30.09R WCI  32          
6HR MIN TEMP:  39; 6HR MAX TEMP:  43; 6HR PCP:  0.06;                

CASPER         LGT RAIN  41  40  96 N13       30.09R                  
6HR MIN TEMP:  40; 6HR MAX TEMP:  45; 6HR PCP:  0.02;                

DOUGLAS        CLOUDY    45  42  89 N15G23    30.05R                  
6HR MIN TEMP:  45; 6HR MAX TEMP:  50; 6HR PCP: TRACE;                


$$
WYZ021-027>030-104>119-220100-
...SOUTHERN WYOMING...
  
CITY           SKY/WX    TMP DP  RH WIND       PRES   REMARKS
EVANSTON       LGT RAIN  40  37  89 W8        30.01R WCI  34          
6HR MIN TEMP:  40; 6HR MAX TEMP:  55; 6HR PCP:  0.08;                

KEMMERER       DRIZZLE   45  37  76 W13G18    29.99R                  
FORT BRIDGER   NOT AVBL                                               
ROCK SPRINGS   CLOUDY    40  36  86 NE24G32   30.00R WCI  29          
6HR MIN TEMP:  40; 6HR MAX TEMP:  55; 6HR PCP: TRACE;                

DIXON          CLOUDY    56  33  42 S16       29.99R THUNDER          
RAWLINS        LGT RAIN  42  39  89 N10       30.04R                  
6HR MIN TEMP:  41; 6HR MAX TEMP:  58; 6HR PCP:  0.20;                

SARATOGA       DRIZZLE   43  43 100 CALM      30.03R                  
LARAMIE        LGT RAIN  41  39  93 NW10      30.04R                  
6HR MIN TEMP:  39; 6HR MAX TEMP:  59; 6HR PCP:  0.27;                

CHEYENNE       CLOUDY    47  45  93 N14G22    29.99R                  
6HR MIN TEMP:  47; 6HR MAX TEMP:  56; 6HR PCP: TRACE;                

TORRINGTON     CLOUDY    48  47  96 NE13      29.98R                  
6HR MIN TEMP:  48; 6HR MAX TEMP:  51; 6HR PCP:  0.29;                

PINE BLUFFS    PTSUNNY   50  43  76 N17G25    29.97R                  

$$